STARLINK-35762, 67172

Orbit data source: Space-Track

STARLINK-35762, 67172 is a payload satellite owned by SpaceX/Seattle (US) in LEO that was launched on Wed, 17 Dec 2025 UTC via an FALCON 9 launch vehicle from the Air Force Eastern Test Range (AFETR). Payload-class satellites include a variety of spacecraft equipped with specific instruments for various scientific and technological missions. These include communications satellites like Starlink; space stations such as the ISS; scientific satellites like the Hubble; Earth observation satellites from companies like Planet Labs, Umbra, and HawkEye 360; GPS; miniature CubeSats for education and research; and military/defense satellites.

Loading next visibility...
Identifier
67172, 2025-303K
Orbit
LEO
Country
Flag of USUS
Related business
Manufacturer
SpaceX/Seattle
Mission
Operational Commercial Communications
Bus & Motor
STARLINK V2MO, Unknown motor
Mass
575 kg wet, ~530 kg dry
Launch date (UTC)
2025-12-17 (6 months ago)
Launch vehicle
FALCON 9
Launch site
Air Force Eastern Test Range (AFETR)
Object type
Payload
Rocket body
Debris
Shape & HBR
Box + 2 Pan, 17.7 m
Radar Cross Section
36.964 m², Large (>1 m²)

Expand to show TLE details & history
Last TLE update: 21 hours ago

TLE from 21 hours ago
0 STARLINK-35762
1 67172U 25303K   26170.96738245  .00033896  00000-0  12346-2 0  9993
2 67172  43.0035  93.4160 0001503 258.8396 101.2287 15.27607053 28370
Epoch: 2026-06-19T23:13Z
TLE epoch observation values (Epoch: 2026-06-19T23:13:01.843Z)
Latitude
-0.00001°
Longitude
-163.03045°
Altitude
482.945 km
Speed
7.626 km/s
True Right ascension
06h 13m 39s
True Declination
0° 00' 00"
Sunlit
Object was in daylight at epoch
Visualization orbit readout
Latitude
Unknown
Longitude
Unknown
Altitude
Unknown
Speed
Unknown
Apparent Right ascension
Unknown
Apparent Declination
Unknown
Sunlit
N/A
Visualization observer readout
Local Sidereal Time
07:13:39
Azimuth
Unknown
Elevation
Unknown
Doppler factor
Unknown
Orbital elements
Apogee altitude
485.944 km
Perigee altitude
483.881 km
Semi-major axis
6,863.05 km
Eccentricity
0.00015
Inclination
43.0035°
RAAN
93.416°
Arg. of periapsis
258.8396°
True anomaly
101.24559°
Mean anomaly
101.2287°
Eccentric anomaly
101.23715°
Mean motion
3.8174 °/min
Orbital period
94.31 mins
BSTAR
0.0012346
Loading maneuver chart data...
Computing Atmospheric mass density...
Loading historical data...
Loading historical data...
Loading historical data...
Loading historical data...
Loading historical data...
Loading historical data...
Loading historical data...

Documentation

Showing up to 5 results
|